Location: Pasadena, ca
(34.1243°N, 118.1037°W)
Time: 13:30:35
(UTC-08:00)

Vanguard 1 - Visible Passes

Search period start: 17 December 2017 00:00
Search period end: 27 December 2017 00:00
Orbit: 650 x 3834 km, 34.2° (Epoch: 16 December)

Date Brightness Start Highest point End Pass type
(mag) Time Alt. Az. Time Alt. Az. Time Alt. Az.
17 Dec 14.3 03:49:02 10° S 04:02:34 20° SE 04:16:32 10° E visible
17 Dec 13.8 06:05:20 10° SW 06:27:08 52° SE 06:45:54 10° ENE visible
18 Dec 14.2 04:07:06 10° S 04:23:27 27° SE 04:40:24 10° E visible
18 Dec 13.6 06:25:52 10° SW 06:48:29 60° SSE 07:07:27 10° ENE visible
19 Dec 14.0 04:26:10 10° SSW 04:44:22 35° SE 05:03:12 10° E visible
20 Dec 14.3 02:34:46 10° SSE 02:42:04 13° SE 02:49:52 10° ESE visible
20 Dec 13.8 04:45:51 10° SSW 05:05:22 44° SE 05:25:26 10° ENE visible
21 Dec 14.1 02:50:27 10° SSE 03:02:42 20° SE 03:16:33 10° E visible
21 Dec 13.6 05:05:59 10° SW 05:26:29 53° SE 05:47:19 10° ENE visible
22 Dec 13.9 03:08:34 10° S 03:23:21 27° SE 03:40:34 10° E visible
22 Dec 13.4 05:26:29 10° SW 05:47:45 62° SSE 06:08:59 10° ENE visible
23 Dec 13.7 03:27:39 10° SSW 03:44:03 35° SE 04:03:30 10° E visible
23 Dec 13.3 05:47:18 10° SW 06:09:11 70° SSE 06:30:32 10° ENE visible
24 Dec 14.1 01:37:44 10° SE 01:42:43 11° ESE 01:48:06 10° ESE visible
24 Dec 13.5 03:47:21 10° SSW 04:04:52 44° SE 04:25:52 10° ENE visible
24 Dec 13.2 06:08:23 10° WSW 06:30:46 77° SSE 06:52:02 10° ENE visible
25 Dec 13.8 01:52:46 10° SSE 02:03:08 18° SE 02:15:39 10° E visible
25 Dec 13.3 04:07:28 10° SW 04:25:50 53° SE 04:47:53 10° ENE visible
26 Dec 13.6 02:13:03 15° S 02:23:34 26° SE 02:39:54 10° E visible
26 Dec 13.2 04:27:57 10° SW 04:46:59 62° SSE 05:09:41 10° ENE visible
